EW2785 Weather Reports


time (UTC)temp
C
wind
direction
speed
KPH
gust
KPH
rain 1hr
cm
rain 24hr
cm
rain mn
cm
humidity
%
barometer
mb
20260906024542 16 34 0.0 3.2 0.00 0.00 0.00 82 1013.2
20260906023058 16 198 0.0 1.6 0.00 0.00 0.00 83 1013.2
20260906021542 16 198 0.0 4.8 0.00 0.00 0.00 84 1013.1
20260906020041 17 331 0.0 1.6 0.00 0.00 0.00 85 1013.1
20260906014554 17 331 0.0 0.0 0.00 0.00 0.00 86 1013.3
20260906013041 17 331 0.0 0.0 0.00 0.00 0.00 86 1013.2
20260906011550 17 334 0.0 1.6 0.00 0.00 0.00 87 1013.1
20260906010038 17 334 0.0 0.0 0.00 0.00 0.00 87 1013.0
20260906004539 17 334 0.0 0.0 0.00 0.00 0.00 87 1012.9
20260906003035 17 334 0.0 1.6 0.00 0.00 0.00 87 1012.7
20260906001534 17 333 0.0 6.4 0.00 0.00 0.00 86 1012.6
20260906000032 18 307 0.0 4.8 0.00 0.00 0.00 86 1012.5
20260905234536 18 309 0.0 6.4 0.00 0.00 0.00 86 1012.5
20260905233030 18 21 0.0 4.8 0.00 0.00 0.00 85 1012.1
20260905231529 18 323 1.6 6.4 0.00 0.00 0.00 84 1012.1
20260905230028 18 13 1.6 8.0 0.00 0.00 0.00 83 1012.0
20260905224534 18 331 1.6 6.4 0.00 0.00 0.00 83 1012.1
20260905223032 18 294 0.0 6.4 0.00 0.00 0.00 82 1012.0
20260905221524 19 360 0.0 8.0 0.00 0.00 0.00 81 1011.8
20260905220024 19 294 1.6 8.0 0.00 0.00 0.00 81 1011.7
20260905214523 19 313 0.0 6.4 0.00 0.00 0.00 81 1011.7
20260905213022 19 324 3.2 9.7 0.00 0.00 0.00 82 1011.7
20260905211523 19 56 0.0 4.8 0.00 0.00 0.00 81 1011.5
20260905210020 19 294 1.6 11.3 0.00 0.00 0.00 80 1011.5
20260905204519 19 242 0.0 8.0 0.00 0.00 0.00 80 1011.3
20260905203020 19 329 1.6 9.7 0.00 0.00 0.00 81 1011.2
20260905201521 20 323 3.2 12.9 0.00 0.00 0.00 81 1011.2
20260905200018 20 319 1.6 14.5 0.00 0.00 0.00 80 1011.1
20260905194518 20 355 3.2 16.1 0.00 0.00 0.00 80 1011.2
20260905193021 20 355 3.2 19.3 0.00 0.00 0.00 81 1011.1
20260905191516 19 319 0.0 1.6 0.00 0.00 0.00 87 1011.1
20260905190037 19 320 0.0 1.6 0.00 0.00 0.00 85 1011.1
20260905184514 19 273 0.0 11.3 0.00 0.00 0.00 83 1011.2
20260905183016 20 295 1.6 16.1 0.00 0.00 0.00 80 1011.0
20260905181517 20 169 0.0 14.5 0.00 0.00 0.00 80 1011.0
20260905180019 20 334 1.6 9.7 0.00 0.00 0.00 80 1011.0
20260905174510 20 294 4.8 11.3 0.00 0.00 0.00 80 1010.9
20260905173009 20 245 1.6 16.1 0.00 0.00 0.00 82 1010.9
20260905171508 19 355 3.2 12.9 0.00 0.00 0.00 83 1010.9
20260905170006 19 5 1.6 9.7 0.00 0.00 0.00 83 1011.0
20260905164505 19 259 1.6 12.9 0.00 0.00 0.00 84 1011.0
20260905163005 18 293 1.6 16.1 0.00 0.00 0.00 85 1011.2
20260905161503 18 62 1.6 14.5 0.00 0.00 0.00 84 1011.3
20260905160001 18 313 3.2 12.9 0.00 0.00 0.00 85 1011.2
20260905154502 18 355 1.6 12.9 0.00 0.00 0.00 86 1011.3
20260905153111 18 350 0.0 17.7 0.00 0.00 0.00 86 1011.4
20260905151558 18 34 1.6 14.5 0.00 0.00 0.00 88 1011.4
20260905150055 17 321 0.0 9.7 0.00 0.00 0.00 89 1011.4
20260905144555 17 319 1.6 9.7 0.00 0.00 0.00 89 1011.2
20260905143054 17 348 6.4 11.3 0.00 0.00 0.00 89 1011.3
20260905141556 17 329 3.2 9.7 0.00 0.00 0.00 90 1011.4
20260905134548 17 51 1.6 14.5 0.00 0.00 0.00 93 1011.3
20260905133047 16 273 1.6 9.7 0.00 0.00 0.00 93 1011.3
20260905131559 16 305 0.0 8.0 0.00 0.00 0.00 93 1011.1
20260905130049 16 49 0.0 4.8 0.00 0.00 0.00 93 1011.1
20260905124544 15 5 1.6 9.7 0.00 0.00 0.00 93 1011.0
20260905123043 15 355 0.0 3.2 0.00 0.00 0.00 93 1011.1
20260905121542 15 294 0.0 1.6 0.00 0.00 0.00 93 1010.9
20260905120042 15 294 0.0 0.0 0.00 0.00 0.00 93 1010.8
20260905114540 14 324 0.0 1.6 0.00 0.00 0.00 93 1010.8
20260905113038 14 324 0.0 0.0 0.00 0.00 0.00 93 1010.8
20260905111600 14 324 0.0 0.0 0.00 0.00 0.00 93 1010.6
20260905110036 14 324 0.0 0.0 0.00 0.00 0.00 93 1010.4
20260905104536 13 324 0.0 0.0 0.00 0.00 0.00 93 1010.3
20260905103035 13 324 0.0 0.0 0.00 0.00 0.00 93 1010.3
20260905101535 13 324 0.0 0.0 0.00 0.00 0.00 93 1010.3
20260905100034 13 324 0.0 0.0 0.00 0.00 0.00 92 1010.2
20260905094533 13 324 0.0 0.0 0.00 0.00 0.00 92 1010.2
20260905093036 13 324 0.0 0.0 0.00 0.00 0.00 92 1010.0
20260905091532 13 324 0.0 0.0 0.00 0.00 0.00 91 1010.0
20260905090031 13 324 0.0 0.0 0.00 0.00 0.00 91 1009.9
20260905084531 13 324 0.0 0.0 0.00 0.00 0.00 91 1009.9
20260905083028 13 324 0.0 0.0 0.00 0.00 0.00 91 1009.9
20260905081527 13 324 0.0 0.0 0.00 0.00 0.00 91 1010.0
20260905080026 13 324 0.0 0.0 0.00 0.00 0.00 90 1010.0
20260905074525 13 324 0.0 0.0 0.00 0.00 0.00 90 1009.8
20260905073025 14 324 0.0 0.0 0.00 0.00 0.00 90 1009.7
20260905071536 14 324 0.0 0.0 0.00 0.00 0.00 90 1009.8
20260905070018 15 324 0.0 0.0 0.00 0.00 0.00 90 1010.0
20260905064517 15 324 0.0 0.0 0.00 0.00 0.00 89 1010.1
20260905063014 15 324 0.0 0.0 0.00 0.00 0.00 88 1010.1
20260905061512 15 324 0.0 0.0 0.00 0.00 0.00 88 1010.3
20260905060011 15 324 0.0 0.0 0.00 0.00 0.00 88 1010.4
20260905054527 16 324 0.0 0.0 0.00 0.00 0.00 88 1010.2
20260905053007 16 324 0.0 0.0 0.00 0.00 0.00 88 1010.3
20260905051506 16 324 0.0 0.0 0.00 0.00 0.00 87 1010.2
20260905050005 16 324 0.0 0.0 0.00 0.00 0.00 87 1010.3
20260905044502 16 324 0.0 0.0 0.00 0.00 0.00 86 1010.3
20260905043100 17 324 0.0 0.0 0.00 0.00 0.00 86 1010.5
20260905041556 17 324 0.0 0.0 0.00 0.00 0.00 85 1010.6
20260905040055 17 324 0.0 0.0 0.00 0.00 0.00 83 1010.5
20260905034555 17 324 0.0 0.0 0.00 0.00 0.00 82 1010.5
20260905033101 18 324 0.0 0.0 0.00 0.00 0.00 82 1010.4
20260905031554 18 324 0.0 0.0 0.00 0.00 0.00 82 1010.1
20260905030053 18 324 0.0 0.0 0.00 0.00 0.00 81 1010.4